Location: Nitra
(0.0000°N, 18.0833°E)
Time: 03:32:44
(UTC+01:00)

ARIANE 6 FM1 Upper Stage - Pass Details

Date: 21 January 2026
Orbit: 522 x 609 km, 62.0° (Epoch: 15 February)

Event Time Altitude Azimuth Distance (km) Brightness Sun altitude
Exits shadow 04:44:55 - 357° (N) 1,844 5.1 -17.4°
Reaches altitude 10° 04:45:01 10° 358° (N) 1,804 5.0 -17.3°
Maximum altitude 04:48:47 37° 66° (ENE) 872 4.0 -16.4°
Drops below altitude 10° 04:52:40 10° 134° (SE) 1,862 6.4 -15.5°
Sets 04:55:03 0° 142° (SE) 2,778 7.3 -15.0°
